Weather History for KASW - November, 2011

Change the Weather History Date:

Friday, November 25, 2011

  Actual Average (KGSH) Record (KGSH)
Temperature  
Mean Temperature 45 °F -  
Max Temperature 55 °F 43 °F - (-1)
Min Temperature 35 °F 29 °F - (-1)
Degree Days  
Heating Degree Days 20    
Moisture  
Dew Point 36 °F    
Average Humidity 72    
Maximum Humidity 93    
Minimum Humidity 47    
Precipitation  
Precipitation 0.03 in - - ()
Sea Level Pressure  
Sea Level Pressure 30.06 in    
Wind  
Wind Speed 7 mph (SSW)    
Max Wind Speed 14 mph    
Max Gust Speed 24 mph    
Visibility 8 miles    
Events      
Averages and records for this station are not official NWS values.
T = Trace of Precipitation, MM = Missing Value Source: NWS Daily Summary

Daily Weather History Graph

Daily Weather History Graph

Search for Another Location

Airport or City:

Trip Planner

Search our weather history database for the weather conditions in past years. The results will help you decide how hot, cold, wet, or windy it might be!

Date:

Astronomy

Nov. 25, 2011 Rise Set
Actual Time 7:42 AM EST 5:17 PM EST
Civil Twilight 7:12 AM EST 5:47 PM EST
Nautical Twilight 6:38 AM EST 6:21 PM EST
Astronomical Twilight 6:05 AM EST 6:54 PM EST
Moon 8:10 AM EST (11/25) 5:43 PM EST (11/25)
Length of Visible Light 10h 35m
Length of Day
9h 34m
New Moon, 0% of the Moon is Illuminated
Nov 25
New Moon
Dec 2
First Quarter
Dec 10
Full
Dec 17
Last Quarter
Dec 24
New

Hourly Weather History & Observations

Time (EST) Temp. Windchill Dew Point Humidity Pressure Visibility Wind Dir Wind Speed Gust Speed Precip Events Conditions
12:35 AM 37.4 °F 32.8 °F 35.6 °F 93% 30.15 in 5.0 mi SSW 5.8 mph - N/A   Clear
12:55 AM 37.4 °F 32.8 °F 35.6 °F 93% 30.15 in 5.0 mi SSW 5.8 mph - N/A   Clear
1:15 AM 35.6 °F 31.7 °F 33.8 °F 93% 30.15 in 5.0 mi South 4.6 mph - N/A   Clear
1:55 AM 35.6 °F 32.8 °F 33.8 °F 93% 30.15 in 5.0 mi SSW 3.5 mph - N/A   Clear
2:15 AM 35.6 °F 29.9 °F 33.8 °F 93% 30.15 in 5.0 mi SSW 6.9 mph - N/A   Clear
2:35 AM 37.4 °F 33.8 °F 33.8 °F 87% 30.14 in 7.0 mi South 4.6 mph - N/A   Clear
3:15 AM 37.4 °F 33.8 °F 33.8 °F 87% 30.14 in 7.0 mi SSW 4.6 mph - N/A   Clear
3:35 AM 37.4 °F 32.8 °F 33.8 °F 87% 30.14 in 7.0 mi SSW 5.8 mph - N/A   Clear
3:55 AM 37.4 °F 33.8 °F 33.8 °F 87% 30.13 in 7.0 mi SSW 4.6 mph - N/A   Clear
4:15 AM 37.4 °F 32.1 °F 35.6 °F 93% 30.13 in 7.0 mi SSW 6.9 mph - N/A   Clear
4:35 AM 37.4 °F 34.9 °F 35.6 °F 93% 30.13 in 7.0 mi SSW 3.5 mph - N/A   Clear
4:55 AM 37.4 °F 34.9 °F 35.6 °F 93% 30.12 in 7.0 mi South 3.5 mph - N/A   Clear
5:35 AM 37.4 °F 33.8 °F 35.6 °F 93% 30.12 in 7.0 mi SSW 4.6 mph - N/A   Clear
5:55 AM 37.4 °F 32.8 °F 35.6 °F 93% 30.11 in 7.0 mi South 5.8 mph - N/A   Clear
6:15 AM 37.4 °F 33.8 °F 35.6 °F 93% 30.11 in 7.0 mi South 4.6 mph - N/A   Clear
6:35 AM 37.4 °F 33.8 °F 35.6 °F 93% 30.12 in 7.0 mi South 4.6 mph - N/A   Clear
6:55 AM 37.4 °F 33.8 °F 35.6 °F 93% 30.12 in 7.0 mi South 4.6 mph - N/A   Clear
7:15 AM 37.4 °F 33.8 °F 35.6 °F 93% 30.11 in 7.0 mi South 4.6 mph - N/A   Clear
7:35 AM 39.2 °F 34.2 °F 35.6 °F 87% 30.12 in 7.0 mi SSW 6.9 mph - N/A   Clear
7:55 AM 39.2 °F 34.2 °F 35.6 °F 87% 30.11 in 7.0 mi South 6.9 mph - N/A   Clear
8:15 AM 41.0 °F 37.1 °F 35.6 °F 81% 30.10 in 7.0 mi SSW 5.8 mph - N/A   Clear
8:55 AM 42.8 °F 37.5 °F 37.4 °F 81% 30.10 in 10.0 mi SSW 9.2 mph - N/A   Clear
9:15 AM 42.8 °F 37.5 °F 37.4 °F 81% 30.10 in 10.0 mi SSW 9.2 mph 16.1 mph N/A   Clear
9:35 AM 44.6 °F 41.4 °F 37.4 °F 76% 30.10 in 10.0 mi SW 5.8 mph 17.3 mph N/A   Clear
9:55 AM 44.6 °F 40.7 °F 37.4 °F 76% 30.09 in 10.0 mi SSW 6.9 mph 16.1 mph N/A   Clear
10:15 AM 46.4 °F 41.1 °F 37.4 °F 71% 30.08 in 10.0 mi SSW 11.5 mph 18.4 mph N/A   Clear
10:35 AM 46.4 °F 41.9 °F 39.2 °F 76% 30.08 in 10.0 mi SW 9.2 mph 16.1 mph N/A   Clear
11:15 AM 50.0 °F - 39.2 °F 66% 30.07 in 10.0 mi SW 11.5 mph 18.4 mph N/A   Clear
11:35 AM 51.8 °F - 39.2 °F 62% 30.05 in 10.0 mi SSW 9.2 mph 16.1 mph N/A   Clear
11:55 AM - - - N/A% - - North - - N/A   Unknown
12:15 PM - - - N/A% - - North - - N/A   Unknown
12:35 PM 53.6 °F - 35.6 °F 51% 30.03 in 10.0 mi SW 13.8 mph 24.2 mph 0.03 in   Clear
12:55 PM 53.6 °F - 35.6 °F 51% 30.02 in 10.0 mi SW 13.8 mph 20.7 mph 0.03 in   Clear
1:15 PM 55.4 °F - 37.4 °F 51% 30.01 in 10.0 mi SW 10.4 mph - N/A   Clear
1:35 PM 53.6 °F - 35.6 °F 51% 30.01 in 10.0 mi SSW 11.5 mph 19.6 mph N/A   Clear
2:15 PM 55.4 °F - 37.4 °F 51% 29.99 in 10.0 mi SSW 9.2 mph 23.0 mph N/A   Clear
2:35 PM 55.4 °F - 37.4 °F 51% 29.99 in 10.0 mi SSW 9.2 mph 18.4 mph N/A   Clear
2:55 PM 55.4 °F - 37.4 °F 51% 29.99 in 10.0 mi SSW 11.5 mph 20.7 mph N/A   Clear
3:15 PM 55.4 °F - 35.6 °F 47% 29.98 in 10.0 mi SW 10.4 mph 19.6 mph N/A   Clear
3:35 PM 55.4 °F - 35.6 °F 47% 29.98 in 10.0 mi SSW 11.5 mph 18.4 mph N/A   Clear
3:55 PM 55.4 °F - 35.6 °F 47% 29.98 in 10.0 mi SSW 12.7 mph 19.6 mph N/A   Clear
4:15 PM 55.4 °F - 35.6 °F 47% 29.98 in 10.0 mi SSW 6.9 mph - N/A   Clear
4:35 PM 53.6 °F - 35.6 °F 51% 29.98 in 10.0 mi SSW 8.1 mph 19.6 mph N/A   Clear
4:55 PM 53.6 °F - 35.6 °F 51% 29.98 in 10.0 mi SSW 8.1 mph - N/A   Clear
5:15 PM 53.6 °F - 35.6 °F 51% 29.98 in 10.0 mi SSW 9.2 mph - N/A   Clear
5:35 PM 53.6 °F - 35.6 °F 51% 29.98 in 10.0 mi South 4.6 mph - N/A   Clear
5:55 PM 53.6 °F - 35.6 °F 51% 29.98 in 10.0 mi SSW 8.1 mph 16.1 mph N/A   Clear
6:15 PM 51.8 °F - 35.6 °F 54% 29.98 in 10.0 mi SSW 4.6 mph - N/A   Clear
6:35 PM 51.8 °F - 35.6 °F 54% 29.98 in 10.0 mi SSW 4.6 mph - N/A   Clear
6:55 PM 51.8 °F - 35.6 °F 54% 29.98 in 10.0 mi SSW 9.2 mph 16.1 mph N/A   Clear
7:15 PM 51.8 °F - 35.6 °F 54% 29.98 in 10.0 mi SSW 9.2 mph 16.1 mph N/A   Clear
7:35 PM 51.8 °F - 35.6 °F 54% 29.98 in 10.0 mi SSW 8.1 mph - N/A   Clear
7:55 PM 51.8 °F - 35.6 °F 54% 29.98 in 10.0 mi SSW 6.9 mph 17.3 mph N/A   Clear
8:15 PM 51.8 °F - 35.6 °F 54% 29.98 in 10.0 mi SSW 8.1 mph - N/A   Clear
8:35 PM 51.8 °F - 35.6 °F 54% 29.99 in 10.0 mi SSW 8.1 mph - N/A   Clear
8:55 PM 50.0 °F - 35.6 °F 58% 29.99 in 10.0 mi SSW 10.4 mph - N/A   Clear
9:15 PM 51.8 °F - 35.6 °F 54% 30.00 in 10.0 mi SSW 8.1 mph - N/A   Clear
9:35 PM 51.8 °F - 35.6 °F 54% 30.00 in 10.0 mi SSW 8.1 mph 16.1 mph N/A   Clear
10:15 PM 50.0 °F - 35.6 °F 58% 30.00 in 10.0 mi SSW 9.2 mph - N/A   Clear
10:35 PM 50.0 °F - 35.6 °F 58% 30.00 in 10.0 mi SSW 6.9 mph 16.1 mph N/A   Clear
11:15 PM 50.0 °F - 33.8 °F 54% 30.00 in 10.0 mi SSW 9.2 mph - N/A   Clear
11:35 PM 50.0 °F - 33.8 °F 54% 30.00 in 10.0 mi SSW 5.8 mph - N/A   Clear
11:55 PM 50.0 °F - 33.8 °F 54% 30.00 in 10.0 mi SSW 6.9 mph - N/A   Clear